• In Russia
  • List of Countries
  • For 7 days
  • Water Temperature
  • Satellite Maps
  • Weather Map
  • Weather Widgets
  • user-avatar
    Login

    Hourly Weather Eisenstadt

    Today, 29 April, Saturday

    Time Temperature Precipitation Wind Pressure Humidity
    00:00 0°C° 0 mm 4 mps 720 mmHg 90%
    01:00 0°C° 0 mm 4 mps 720 mmHg 91%
    02:00 0°C° 0 mm 3 mps 721 mmHg 91%
    03:00 0°C° 0 mm 3 mps 721 mmHg 92%
    04:00 +1°C° 0 mm 2 mps 721 mmHg 92%
    05:00 +1°C° 0 mm 3 mps 722 mmHg 88%
    06:00 +2°C° 0 mm 3 mps 722 mmHg 85%
    07:00 +4°C° 0 mm 3 mps 723 mmHg 81%
    08:00 +5°C° 0 mm 3 mps 723 mmHg 75%
    09:00 +8°C° 0 mm 3 mps 723 mmHg 69%
    10:00 +8°C° 0 mm 4 mps 723 mmHg 63%
    11:00 +10°C° 0 mm 4 mps 723 mmHg 61%
    12:00 +11°C° 0 mm 4 mps 723 mmHg 59%
    13:00 +11°C° 0 mm 4 mps 723 mmHg 57%
    14:00 +11°C° 0.1 mm 4 mps 723 mmHg 57%
    15:00 +11°C° 0.1 mm 3 mps 722 mmHg 57%
    16:00 +11°C° 0.1 mm 3 mps 722 mmHg 58%
    17:00 +9°C° 0 mm 3 mps 722 mmHg 66%
    18:00 +7°C° 0 mm 2 mps 722 mmHg 74%
    19:00 +5°C° 0 mm 2 mps 722 mmHg 82%
    20:00 +5°C° 0 mm 2 mps 722 mmHg 82%
    21:00 +4°C° 0 mm 2 mps 722 mmHg 83%
    22:00 +3°C° 0 mm 2 mps 723 mmHg 84%
    23:00 +3°C° 0 mm 2 mps 723 mmHg 84%

    Tomorrow, 30 April, Sunday

    Time Temperature Precipitation Wind Pressure Humidity
    00:00 +2°C° 0 mm 2 mps 723 mmHg 84%
    01:00 +2°C° 0 mm 2 mps 723 mmHg 84%
    02:00 +2°C° 0 mm 2 mps 723 mmHg 85%
    03:00 +2°C° 0 mm 1 mps 723 mmHg 86%
    04:00 +2°C° 0 mm 1 mps 723 mmHg 86%
    05:00 +4°C° 0 mm 1 mps 723 mmHg 82%
    06:00 +6°C° 0 mm 1 mps 723 mmHg 78%
    07:00 +8°C° 0 mm 1 mps 724 mmHg 73%
    08:00 +10°C° 0 mm 1 mps 724 mmHg 68%
    09:00 +11°C° 0 mm 1 mps 724 mmHg 63%
    10:00 +13°C° 0 mm 2 mps 723 mmHg 58%
    11:00 +13°C° 0 mm 2 mps 723 mmHg 55%
    12:00 +14°C° 0 mm 2 mps 723 mmHg 52%
    13:00 +15°C° 0 mm 2 mps 722 mmHg 50%
    14:00 +14°C° 0 mm 3 mps 722 mmHg 51%
    15:00 +14°C° 0 mm 3 mps 722 mmHg 52%
    16:00 +14°C° 0 mm 3 mps 721 mmHg 54%
    17:00 +12°C° 0 mm 3 mps 721 mmHg 63%
    18:00 +10°C° 0 mm 3 mps 721 mmHg 72%
    19:00 +8°C° 0 mm 2 mps 721 mmHg 81%
    20:00 +8°C° 0 mm 2 mps 721 mmHg 82%
    21:00 +7°C° 0 mm 3 mps 721 mmHg 82%
    22:00 +7°C° 0 mm 3 mps 721 mmHg 83%
    23:00 +7°C° 0 mm 3 mps 721 mmHg 84%

    Day after tomorrow, 1 May, Monday

    Time Temperature Precipitation Wind Pressure Humidity
    00:00 +7°C° 0 mm 3 mps 721 mmHg 85%
    01:00 +7°C° 0 mm 3 mps 721 mmHg 86%
    02:00 +5°C° 0 mm 3 mps 720 mmHg 88%
    03:00 +4°C° 0 mm 3 mps 720 mmHg 90%
    04:00 +4°C° 0 mm 3 mps 720 mmHg 93%
    05:00 +4°C° 0 mm 3 mps 720 mmHg 88%
    06:00 +5°C° 0 mm 3 mps 720 mmHg 84%
    07:00 +6°C° 0 mm 4 mps 720 mmHg 80%
    08:00 +8°C° 0 mm 4 mps 720 mmHg 76%
    09:00 +10°C° 0 mm 4 mps 720 mmHg 72%
    10:00 +11°C° 0 mm 4 mps 720 mmHg 69%
    11:00 +12°C° 0 mm 4 mps 720 mmHg 67%
    12:00 +13°C° 0 mm 4 mps 719 mmHg 66%
    13:00 +14°C° 0 mm 4 mps 719 mmHg 65%
    14:00 +14°C° 0 mm 4 mps 719 mmHg 66%
    15:00 +14°C° 0 mm 3 mps 719 mmHg 67%
    16:00 +14°C° 0 mm 3 mps 718 mmHg 68%
    17:00 +13°C° 0 mm 3 mps 718 mmHg 74%
    18:00 +12°C° 0 mm 2 mps 718 mmHg 80%
    19:00 +10°C° 0 mm 2 mps 718 mmHg 86%
    20:00 +9°C° 0 mm 2 mps 719 mmHg 88%
    21:00 +9°C° 0 mm 1 mps 719 mmHg 90%
    22:00 +8°C° 0 mm 1 mps 720 mmHg 91%
    23:00 +7°C° 0.1 mm 2 mps 720 mmHg 91%

    2 May, Tuesday

    Time Temperature Precipitation Wind Pressure Humidity
    00:00 +7°C° 0.1 mm 2 mps 720 mmHg 91%
    01:00 +7°C° 0.1 mm 2 mps 720 mmHg 92%
    02:00 +7°C° 1.1 mm 3 mps 720 mmHg 92%
    03:00 +7°C° 1.1 mm 3 mps 720 mmHg 92%
    04:00 +5°C° 1.1 mm 4 mps 720 mmHg 92%
    05:00 +5°C° 1.1 mm 4 mps 720 mmHg 92%
    06:00 +5°C° 1.1 mm 4 mps 721 mmHg 92%
    07:00 +5°C° 1.1 mm 4 mps 721 mmHg 92%
    08:00 +5°C° 1.1 mm 3 mps 721 mmHg 91%
    09:00 +5°C° 1.1 mm 3 mps 721 mmHg 90%
    10:00 +7°C° 1.1 mm 3 mps 721 mmHg 89%
    11:00 +7°C° 1 mm 3 mps 722 mmHg 89%
    12:00 +7°C° 1 mm 3 mps 722 mmHg 88%
    13:00 +7°C° 1 mm 3 mps 722 mmHg 87%
    14:00 +8°C° 0 mm 3 mps 722 mmHg 83%
    15:00 +9°C° 0 mm 3 mps 722 mmHg 78%
    16:00 +11°C° 0 mm 3 mps 722 mmHg 73%
    17:00 +9°C° 0 mm 3 mps 722 mmHg 79%
    18:00 +8°C° 0 mm 2 mps 722 mmHg 84%
    19:00 +7°C° 0 mm 2 mps 722 mmHg 90%
    20:00 +6°C° 0 mm 2 mps 722 mmHg 91%
    21:00 +6°C° 0 mm 2 mps 722 mmHg 92%
    22:00 +5°C° 0 mm 2 mps 723 mmHg 92%
    23:00 +5°C° 0 mm 2 mps 722 mmHg 92%

    3 May, Wednesday

    Time Temperature Precipitation Wind Pressure Humidity
    00:00 +4°C° 0 mm 2 mps 722 mmHg 91%
    01:00 +4°C° 0 mm 2 mps 722 mmHg 90%
    02:00 +5°C° 0 mm 1 mps 722 mmHg 88%
    03:00 +5°C° 0 mm 1 mps 722 mmHg 87%
    04:00 +5°C° 0 mm 1 mps 722 mmHg 85%
    05:00 +7°C° 0 mm 1 mps 722 mmHg 81%
    06:00 +8°C° 0 mm 1 mps 722 mmHg 77%
    07:00 +9°C° 0 mm 1 mps 723 mmHg 73%
    08:00 +11°C° 0 mm 1 mps 723 mmHg 71%
    09:00 +12°C° 0 mm 1 mps 723 mmHg 69%
    10:00 +13°C° 0 mm 1 mps 723 mmHg 67%
    11:00 +13°C° 0.1 mm 1 mps 722 mmHg 67%
    12:00 +14°C° 0.1 mm 1 mps 722 mmHg 66%
    13:00 +14°C° 0.1 mm 2 mps 722 mmHg 66%
    14:00 +14°C° 0.1 mm 2 mps 722 mmHg 68%
    15:00 +14°C° 0.1 mm 2 mps 721 mmHg 71%
    16:00 +14°C° 0.1 mm 2 mps 721 mmHg 73%
    17:00 +13°C° 0 mm 2 mps 721 mmHg 80%
    18:00 +10°C° 0 mm 2 mps 721 mmHg 86%
    19:00 +9°C° 0 mm 2 mps 720 mmHg 93%
    20:00 +8°C° 0 mm 2 mps 720 mmHg 94%
    21:00 +7°C° 0 mm 2 mps 721 mmHg 94%
    22:00 +6°C° 0 mm 2 mps 721 mmHg 95%
    23:00 +7°C° 0 mm 1 mps 720 mmHg 96%

    4 May, Thursday

    Time Temperature Precipitation Wind Pressure Humidity
    00:00 +6°C° 0 mm 1 mps 720 mmHg 96%
    01:00 +6°C° 0 mm 1 mps 720 mmHg 96%
    02:00 +6°C° 0 mm 1 mps 720 mmHg 96%
    03:00 +5°C° 0 mm 1 mps 719 mmHg 96%
    04:00 +5°C° 0 mm 1 mps 719 mmHg 96%
    05:00 +7°C° 0 mm 1 mps 719 mmHg 92%
    06:00 +9°C° 0 mm 1 mps 720 mmHg 89%
    07:00 +10°C° 0 mm 0 mps 720 mmHg 85%
    08:00 +13°C° 0 mm 1 mps 720 mmHg 80%
    09:00 +14°C° 0 mm 1 mps 720 mmHg 75%
    10:00 +15°C° 0 mm 2 mps 720 mmHg 71%
    11:00 +16°C° 0.3 mm 2 mps 720 mmHg 69%
    12:00 +16°C° 0.3 mm 2 mps 719 mmHg 68%
    13:00 +17°C° 0.3 mm 2 mps 719 mmHg 67%
    14:00 +17°C° 0.7 mm 2 mps 719 mmHg 68%
    15:00 +17°C° 0.7 mm 2 mps 719 mmHg 69%
    16:00 +17°C° 0.7 mm 2 mps 719 mmHg 70%
    17:00 +15°C° 0.6 mm 2 mps 718 mmHg 77%
    18:00 +13°C° 0.6 mm 2 mps 718 mmHg 83%
    19:00 +12°C° 0.6 mm 1 mps 718 mmHg 90%
    20:00 +11°C° 0.5 mm 1 mps 719 mmHg 90%
    21:00 +10°C° 0.5 mm 1 mps 719 mmHg 91%
    22:00 +9°C° 0.5 mm 1 mps 719 mmHg 92%
    23:00 +9°C° 0.5 mm 1 mps 719 mmHg 93%
    Show more